OK1CMJ-5 Weather Reports


time (UTC)temp
C
wind
direction
speed
KPH
gust
KPH
rain 1hr
cm
rain 24hr
cm
rain mn
cm
humidity
%
barometer
mb
20260506051035 12 338 0.0 8.0 0.00 0.23 0.00 76 1009.1
20260506044335 12 2 1.6 6.4 0.00 0.23 0.00 76 1009.0
20260506043435 12 277 0.0 11.3 0.00 0.23 0.00 76 1009.0
20260506042535 12 235 1.6 6.4 0.00 0.23 0.00 79 1009.1
20260506041635 12 275 1.6 6.4 0.00 0.23 0.00 84 1008.9
20260506040735 11 314 0.0 4.8 0.00 0.23 0.00 88 1008.8
20260506035835 11 333 0.0 8.0 0.00 0.23 0.00 89 1008.6
20260506034935 11 349 1.6 8.0 0.00 0.23 0.00 89 1008.5
20260506034035 10 349 0.0 8.0 0.00 0.23 0.00 88 1008.7
20260506032235 10 335 0.0 9.7 0.00 0.23 0.00 88 1008.5
20260506031335 10 320 3.2 8.0 0.00 0.23 0.00 87 1008.7
20260506022835 11 341 0.0 4.8 0.00 0.23 0.00 87 1008.6
20260506021035 11 266 3.2 11.3 0.00 0.23 0.00 91 1008.6
20260506020135 11 316 1.6 12.9 0.00 0.23 0.00 92 1008.7
20260506014335 11 349 0.0 6.4 0.00 0.23 0.00 92 1008.8
20260506012535 10 354 1.6 6.4 0.00 0.23 0.00 93 1008.9
20260506011634 10 1 0.0 3.2 0.00 0.23 0.00 93 1008.9
20260506005835 10 352 1.6 4.8 0.00 0.23 0.00 92 1008.8
20260506004934 10 1 1.6 3.2 0.00 0.23 0.00 91 1008.7
20260506004034 10 1 0.0 3.2 0.00 0.23 0.00 90 1008.8
20260506003134 10 1 0.0 3.2 0.00 0.23 0.00 90 1008.7
20260506002235 10 1 0.0 3.2 0.00 0.23 0.00 89 1008.8
20260506001334 10 1 0.0 3.2 0.00 0.23 0.00 89 1008.8
20260506000434 10 1 0.0 1.6 0.00 0.23 0.00 89 1008.8
20260505235534 10 1 0.0 3.2 0.00 0.23 0.00 89 1009.0
20260505234634 11 1 0.0 3.2 0.00 0.23 0.00 89 1009.1
20260505233734 11 0 0.0 0.0 0.00 0.23 0.00 89 1009.1
20260505232834 11 0 0.0 0.0 0.00 0.23 0.00 89 1008.9
20260505231934 12 0 0.0 0.0 0.00 0.23 0.00 89 1009.0
20260505231035 12 314 0.0 3.2 0.00 0.23 0.00 90 1009.0
20260505225234 12 237 0.0 1.6 0.00 0.23 0.00 88 1008.9
20260505224334 12 0 0.0 0.0 0.00 0.23 0.00 88 1008.8
20260505223434 12 0 0.0 0.0 0.00 0.23 0.00 88 1009.0
20260505222534 12 0 0.0 0.0 0.00 0.23 0.00 88 1008.8
20260505221634 12 1 0.0 1.6 0.00 0.23 0.00 88 1008.9
20260505220734 12 355 0.0 3.2 0.00 0.23 0.00 88 1009.1
20260505214034 13 347 0.0 8.0 0.00 0.23 0.23 89 1009.1
20260505212235 13 344 4.8 8.0 0.00 0.23 0.23 81 1008.6
20260505211335 13 337 1.6 6.4 0.00 0.28 0.23 78 1008.7
20260505205534 13 297 1.6 6.4 0.00 0.33 0.23 74 1008.3
20260505204634 13 295 3.2 4.8 0.00 0.33 0.23 75 1008.2
20260505203735 13 290 0.0 11.3 0.00 0.33 0.23 75 1008.1
20260505201934 13 294 3.2 9.7 0.00 0.33 0.23 75 1007.8
20260505201034 13 280 1.6 11.3 0.00 0.33 0.23 75 1007.7
20260505200135 13 301 4.8 12.9 0.00 0.33 0.23 77 1007.7
20260505195234 13 300 1.6 11.3 0.00 0.33 0.23 77 1007.7
20260505193434 13 309 4.8 12.9 0.03 0.33 0.23 78 1007.3
20260505192534 13 315 1.6 6.4 0.20 0.33 0.23 76 1007.4
20260505190734 13 333 3.2 6.4 0.23 0.33 0.23 74 1007.1
20260505185834 13 315 3.2 6.4 0.23 0.33 0.23 71 1006.9
20260505184034 14 328 4.8 9.7 0.20 0.30 0.23 60 1006.6
20260505183134 15 316 4.8 14.5 0.18 0.28 0.20 49 1006.9
20260505182234 17 310 6.4 14.5 0.00 0.10 0.00 32 1007.1
20260505181334 17 346 3.2 12.9 0.00 0.10 0.00 33 1007.0
20260505180435 18 55 0.0 6.4 0.00 0.10 0.00 28 1006.5
20260505175534 18 1 0.0 9.7 0.00 0.10 0.00 27 1006.0
20260505174634 18 20 3.2 9.7 0.00 0.10 0.00 24 1005.7
20260505173734 19 96 1.6 6.4 0.00 0.10 0.00 20 1006.1
20260505172834 20 83 0.0 8.0 0.00 0.10 0.00 19 1006.2
20260505171934 20 41 3.2 9.7 0.00 0.10 0.00 18 1006.3
20260505164334 22 179 3.2 6.4 0.00 0.10 0.00 12 1006.2
20260505162534 22 342 3.2 9.7 0.00 0.10 0.00 13 1006.2
20260505161634 21 331 3.2 8.0 0.00 0.10 0.00 15 1006.4
20260505160734 22 316 0.0 6.4 0.00 0.10 0.00 14 1006.4
20260505153134 23 72 6.4 12.9 0.00 0.10 0.00 10 1006.8
20260505152234 23 41 3.2 12.9 0.00 0.10 0.00 10 1007.0
20260505151334 24 84 3.2 12.9 0.00 0.10 0.00 10 1006.8
20260505150434 25 72 6.4 12.9 0.00 0.10 0.00 10 1006.9
20260505140134 25 78 3.2 16.1 0.00 0.10 0.00 10 1007.5
20260505124934 23 358 6.4 12.9 0.00 0.10 0.00 11 1008.2
20260505124034 25 11 3.2 9.7 0.00 0.10 0.00 10 1008.2
20260505123134 25 323 1.6 8.0 0.00 0.10 0.00 10 1008.1
20260505122234 25 351 4.8 8.0 0.00 0.10 0.00 10 1008.4
20260505121334 23 310 0.0 11.3 0.00 0.10 0.00 10 1008.3
20260505120434 23 296 4.8 12.9 0.00 0.10 0.00 10 1008.5
20260505115534 24 316 3.2 6.4 0.00 0.10 0.00 10 1008.3
20260505114634 24 304 3.2 11.3 0.00 0.10 0.00 10 1008.6
20260505112834 24 292 1.6 4.8 0.00 0.10 0.00 10 1008.7
20260505111934 24 310 0.0 9.7 0.00 0.10 0.00 10 1008.6
20260505111034 24 156 3.2 8.0 0.00 0.10 0.00 10 1008.8
20260505110134 26 158 3.2 12.9 0.00 0.10 0.00 10 1008.8
20260505101634 26 79 1.6 6.4 0.00 0.10 0.00 10 1009.0
20260505100734 26 79 3.2 6.4 0.00 0.10 0.00 10 1009.2
20260505095834 26 339 3.2 6.4 0.00 0.10 0.00 10 1009.3
20260505094034 26 270 3.2 6.4 0.00 0.10 0.00 10 1009.5
20260505093134 25 355 0.0 6.4 0.00 0.10 0.00 10 1009.5
20260505091334 25 34 3.2 6.4 0.00 0.10 0.00 10 1009.6
20260505090434 25 80 3.2 4.8 0.00 0.10 0.00 10 1009.7
20260505085534 25 314 1.6 6.4 0.00 0.10 0.00 10 1009.6
20260505084634 24 73 3.2 6.4 0.00 0.10 0.00 10 1009.8
20260505083734 24 104 1.6 6.4 0.00 0.10 0.00 10 1009.7
20260505082834 25 116 3.2 8.0 0.00 0.10 0.00 10 1009.9
20260505081934 25 103 1.6 6.4 0.00 0.10 0.00 10 1010.0
20260505081034 25 77 3.2 6.4 0.00 0.10 0.00 10 1010.2
20260505080134 24 348 0.0 6.4 0.00 0.10 0.00 15 1009.9
20260505075234 23 324 3.2 6.4 0.00 0.10 0.00 14 1010.2
20260505074334 23 317 3.2 4.8 0.00 0.10 0.00 13 1010.3
20260505073434 23 151 1.6 4.8 0.00 0.10 0.00 16 1010.3
20260505072534 23 55 1.6 3.2 0.00 0.10 0.00 16 1010.3
20260505071634 22 353 0.0 6.4 0.00 0.10 0.00 17 1010.4
20260505070734 22 202 1.6 4.8 0.00 0.10 0.00 17 1010.5
20260505065834 22 314 1.6 4.8 0.00 0.10 0.00 18 1010.5
20260505064934 22 314 1.6 4.8 0.00 0.10 0.00 17 1010.7
20260505064034 22 331 0.0 3.2 0.00 0.10 0.00 20 1010.8
20260505062234 21 1 1.6 3.2 0.00 0.10 0.00 22 1010.8
20260505061334 22 355 0.0 3.2 0.00 0.10 0.00 27 1010.7